Portada
METAR-TAF:

METAR-TAF

Aeropuertos :

Monte Cimone, Italia

latitud: 44-12N, longitud: 010-42E, altitud: 2165 m

Observación

El informe se hizo hace 1 hora y 15 minutos, a las 05:55 UTC
Viento 20 kt del sur-suroeste, variando entre sur-sureste y oeste-suroeste
Temperatura 6°C
Humedad 93%
Presión 1012 hPa

METAR: LIVC 070555Z AUTO 21020KT 160V240 //// 06/05 Q1012

Hora: 09:10 (07:10 UTC)


TAF: falta

Observaciones y pronósticos meteorológicos de más de 4000 aeropuertos (mensajes METAR y TAF).

Los puntos amarillos y rojos representan las estaciones disponibles.

Ponga el ratón en el punto deseado para ver el nombre de la estación.

Haga clic para ver las observaciones y los pronósticos meteorológicos.

Para cambiar el mapa : haga clic en los botones verdes con una cruz de color negro para hacer un zoom, en el botón verde con un guión para alejar o en las flechas verdes para mapas adyacentes.


METAR-TAF: